Погода в Кириллове

Россия / Пензенская область     53°45′20″N   42°39′55″E
темп.,
°C
ветер,
м/с
пор.,
м/с
влажн.,
%
обл.,
%
осадки,
мм/ч
давл.,
гПа
погр.,
м
18 апреля, вс
вс1800:00+9юз4587100 1.1 1019532
03:00+8юз1291100 4.0 1019186
06:00+8ююз0192100 0.4 1019131
09:00+10вюв118071 0.4 1019505
12:00+12всв227046 0.1 1019943
15:00+11всв557596 0.4 1019571
18:00+9в688464 0.2 1020594
21:00+8в51081100 0.2 1020501
19 апреля, пн
пн1900:00+8в61085100 0.1 1020499
03:00+7всв61180100 0.1 1020521
06:00+6всв71285100 0.0 1019551
09:00+4всв81387100 1.1 1020721
12:00+2всв71596100 4.3 1021613
15:00+4всв81496100 5.5 1021739
18:00+6в71383100 0.0 1021745
21:00+6в71488100 0.0 1021796
20 апреля, вт
вт2000:00+5в81584100 0.0 1021698
03:00+5вюв71386100 0.1 1022595
06:00+4в7138882 0.0 1021555
09:00+5вюв71489100 0.1 1022709
12:00+7вюв81373100 0.1 1021943
15:00+9вюв91469100 0.2 10191069
18:00+8вюв101866100 0.0 1017999
21:00+7вюв122174100 1.0 10151052
21 апреля, ср
ср2100:00+6вюв132485100 2.6 1012998
03:00+6юв122285100 4.9 10111135
06:00+5юв122186100 0.1 1011890
09:00+6юв122089100 0.1 10111045
12:00+7ююв111888100 0.0 1012998
15:00+8ю91591100 0.4 10121408
18:00+8ююз5108395 0.8 1015556
21:00+7ю61389100 0.8 1018553
22 апреля, чт
чт2200:00+6ю499560 0.1 1019232
03:00+5ю489574 0.1 1020163
06:00+5ю3892100 0.0 1022190
09:00+10ююз466873 0.1 1023694
12:00+12юз465371 0.1 10231763
15:00+11зюз3455100 0.1 10241218
18:00+11ююз236141 0.0 102594
21:00+7ююз22725 0.0 102614